WetterOnline ( https://www.wetteronline.de )

Wetter aktuell Lotte

Aktuelles Wetter: Münster/Osnabrück Flugh. (53m)

6-stündlich | Neueste Meldungen
Ortszeit Temperatur Wetter
Di, 17.05. 2:00 11.8° C fast wolkenlos
Mo, 16.05. 20:00 18.7° C bewölkt
Mo, 16.05. 14:00 23.7° C wolkig
Mo, 16.05. 8:00 18.0° C leicht bewölkt
Mo, 16.05. 2:00 16.0° C leicht bewölkt
So, 15.05. 20:00 22.6° C leicht bewölkt
So, 15.05. 14:00 22.7° C leicht bewölkt
So, 15.05. 8:00 13.5° C leicht bewölkt
Ortszeit Temperatur Wetter
Di, 17.05. 3:30 11.8° C leicht bewölkt
Di, 17.05. 3:20 11.8° C leicht bewölkt
Di, 17.05. 3:10 11.9° C leicht bewölkt
Di, 17.05. 3:00 11.6° C leicht bewölkt
Di, 17.05. 2:50 11.6° C wolkig
Di, 17.05. 2:40 11.9° C bedeckt
Di, 17.05. 2:30 12.4° C bewölkt
Di, 17.05. 2:00 11.8° C fast wolkenlos
Di, 17.05. 1:30 12.7° C wolkenlos
Di, 17.05. 1:00 12.5° C fast wolkenlos
Di, 17.05. 0:30 13.7° C wolkenlos
Di, 17.05. 0:00 15.9° C leicht bewölkt
Ortszeit Relative Feuchte Sichtweite
Di, 17.05. 2:00 97% 20 km
Mo, 16.05. 20:00 80% 25 km
Mo, 16.05. 14:00 46% 40 km
Mo, 16.05. 8:00 53% 40 km
Mo, 16.05. 2:00 62% 45 km
So, 15.05. 20:00 38% 45 km
So, 15.05. 14:00 37% 40 km
So, 15.05. 8:00 70% 35 km
Ortszeit Relative Feuchte Sichtweite
Di, 17.05. 3:30 97% 9 km
Di, 17.05. 3:20 97% -
Di, 17.05. 3:10 97% -
Di, 17.05. 3:00 98% 20 km
Di, 17.05. 2:50 98% -
Di, 17.05. 2:40 95% -
Di, 17.05. 2:30 95% -
Di, 17.05. 2:00 97% 20 km
Di, 17.05. 1:30 94% 20 km
Di, 17.05. 1:00 94% 35 km
Di, 17.05. 0:30 89% 25 km
Di, 17.05. 0:00 79% 30 km
Ortszeit Niederschlagsmenge Niederschlagsart
Di, 17.05. 2:00 0.1 l/m2 in 6 Std. Regen
Mo, 16.05. 20:00 0.3 l/m2 in 12 Std. Schauer
Mo, 16.05. 14:00 0.1 l/m2 in 6 Std. Regenschauer
Mo, 16.05. 8:00 0.0 l/m2 in 12 Std. -
Mo, 16.05. 2:00 0.0 l/m2 in 6 Std. -
So, 15.05. 20:00 0.0 l/m2 in 12 Std. -
So, 15.05. 14:00 0.0 l/m2 in 6 Std. -
So, 15.05. 8:00 0.0 l/m2 in 12 Std. -
Ortszeit Niederschlagsmenge Niederschlagsart
Di, 17.05. 3:30 0.0 l/m2 in 1 Std. -
Di, 17.05. 3:20 keine Meldung -
Di, 17.05. 3:10 keine Meldung -
Di, 17.05. 3:00 0.0 l/m2 in 1 Std. -
Di, 17.05. 2:50 keine Meldung -
Di, 17.05. 2:40 keine Meldung -
Di, 17.05. 2:30 0.0 l/m2 in 1 Std. -
Di, 17.05. 2:00 0.0 l/m2 in 1 Std. Regen
Di, 17.05. 1:30 0.0 l/m2 in 1 Std. -
Di, 17.05. 1:00 0.0 l/m2 in 1 Std. -
Di, 17.05. 0:30 0.0 l/m2 in 1 Std. -
Di, 17.05. 0:00 0.0 l/m2 in 1 Std. -
Ortszeit Stärke Spitze Richtung
km/h Bft. km/h Grad Sektor
Di, 17.05. 2:00 0 0 22 - -
Mo, 16.05. 20:00 24 4 37 270° W
Mo, 16.05. 14:00 11 2 25 220° SW
Mo, 16.05. 8:00 6 1 20 120° SO
Mo, 16.05. 2:00 7 2 22 90° O
So, 15.05. 20:00 11 2 29 70° O
So, 15.05. 14:00 11 2 25 80° O
So, 15.05. 8:00 7 2 11 50° NO
Ortszeit Stärke Spitze Richtung
km/h Bft. km/h Grad Sektor
Di, 17.05. 3:30 4 1 7 170° S
Di, 17.05. 3:20 4 1 - 170° S
Di, 17.05. 3:10 4 1 - 150° SO
Di, 17.05. 3:00 4 1 11 140° SO
Di, 17.05. 2:50 4 1 - 140° SO
Di, 17.05. 2:40 6 1 - 160° S
Di, 17.05. 2:30 4 1 7 190° S
Di, 17.05. 2:00 0 0 7 - -
Di, 17.05. 1:30 0 0 7 - -
Di, 17.05. 1:00 4 1 11 220° SW
Di, 17.05. 0:30 4 1 11 250° W
Di, 17.05. 0:00 7 2 11 220° SW
Ortszeit Untergrenze Bedeckung Gattung
total tief tief mittel hoch
Di, 17.05. 2:00 7500 m 1/8 0/8 - - Ci
Mo, 16.05. 20:00 450 m 7/8 7/8 Cu - -
Mo, 16.05. 14:00 3600 m 7/8 2/8 Cb As -
Mo, 16.05. 8:00 2700 m 5/8 1/8 - Ac Ci
Mo, 16.05. 2:00 6300 m 5/8 5/8 - - Ci
So, 15.05. 20:00 7800 m 7/8 0/8 - - Ci
So, 15.05. 14:00 8400 m 7/8 0/8 - - Ci
So, 15.05. 8:00 7500 m 3/8 0/8 - - Ci
Ortszeit Bedeckungsgrad in Achtel und Wolkenuntergrenze
Di, 17.05. 3:30 1(8400m) 6(9000m) 6(9000m)
Di, 17.05. 3:20 1(8400m) 6(9000m) 6(9000m)
Di, 17.05. 3:10 4
Di, 17.05. 3:00 3(1440m) 4(7500m)
Di, 17.05. 2:50 2(1500m) 8(9000m)
Di, 17.05. 2:40 8
Di, 17.05. 2:30 7(1440m)
Di, 17.05. 2:00 1(7500m)
Di, 17.05. 1:30 keine Wolken
Di, 17.05. 1:00 1(7500m)
Di, 17.05. 0:30 keine Wolken
Di, 17.05. 0:00 2(7500m)
Ortszeit Luftdruck NN (hPa) Tendenz (hPa in 3 Std.)
Di, 17.05. 2:00 1020 + 0,7
Mo, 16.05. 20:00 1017 + 1,8
Mo, 16.05. 14:00 1015 + 0,2
Mo, 16.05. 8:00 1015 - 0,5
Mo, 16.05. 2:00 1017 - 0,5
So, 15.05. 20:00 1017 - 1,3
So, 15.05. 14:00 1020 - 1,3
So, 15.05. 8:00 1022 0,0
Ortszeit Luftdruck NN (hPa) Tendenz (hPa in 3 Std.)
Di, 17.05. 3:30 1020 + 0,3
Di, 17.05. 3:20 1020 keine Meldung
Di, 17.05. 3:10 1020 keine Meldung
Di, 17.05. 3:00 1020 + 0,3
Di, 17.05. 2:50 1020 keine Meldung
Di, 17.05. 2:40 1020 keine Meldung
Di, 17.05. 2:30 1020 + 0,5
Di, 17.05. 2:00 1020 + 0,7
Di, 17.05. 1:30 1020 + 0,8
Di, 17.05. 1:00 1020 + 0,9
Di, 17.05. 0:30 1020 + 1,1
Di, 17.05. 0:00 1020 + 1,4
Ortszeit Schneehöhe (cm)
Di, 17.05. 2:00 0
Mo, 16.05. 20:00 0
Mo, 16.05. 14:00 0
Mo, 16.05. 8:00 0
Mo, 16.05. 2:00 0
So, 15.05. 20:00 0
So, 15.05. 14:00 0
So, 15.05. 8:00 0
Ortszeit Schneehöhe (cm)
Di, 17.05. 3:30 0
Di, 17.05. 3:20 0
Di, 17.05. 3:10 0
Di, 17.05. 3:00 0
Di, 17.05. 2:50 0
Di, 17.05. 2:40 0
Di, 17.05. 2:30 0
Di, 17.05. 2:00 0
Di, 17.05. 1:30 0
Di, 17.05. 1:00 0
Di, 17.05. 0:30 0
Di, 17.05. 0:00 0
Link zu dieser Seite / Seite empfehlen

Das Wetter in ...